Location: T�bingen+AIT
(48.5342°N, 9.0700°E)
Time: 22:33:26
(UTC+01:00)

Cosmos 1812 Rocket - Pass Details

Date: 14 September 2017
Orbit: 605 x 633 km, 82.5° (Epoch: 18 November)

Event Time Altitude Azimuth Distance (km) Brightness Sun altitude
Exits shadow 21:54:45 35° 54° (NE) 1,018 4.4 -22.0°
Drops below altitude 10° 21:57:49 10° 22° (NNE) 2,020 6.3 -22.4°
Sets 22:00:09 0° 16° (NNE) 2,936 7.3 -22.8°
